Location: Mountain Grove
(34.0887°N, 86.6172°W)
Time: 00:49:17
(UTC+00:00)

Meteor 2-4 Rocket - Pass Details

Date: 14 July 2020
Orbit: 799 x 908 km, 81.2° (Epoch: 12 August)

Event Time Altitude Azimuth Distance (km) Brightness Sun altitude
Rises 07:05:54 0° 358° (N) 3,540 7.9 -31.6°
Reaches altitude 10° 07:08:30 10° 5° (N) 2,591 7.0 -31.5°
Maximum altitude 07:14:11 47° 78° (ENE) 1,179 4.5 -31.0°
Enters shadow 07:14:40 46° 93° (E) 1,193 4.5 -31.0°
